SWA276 KSAN-KSFO

Flight info

Callsign SWA276
Flight time 1h 5m
Altitude 32000
Route PADRZ2 IKAYE RIZIN SPLNT STOKD SERFR SERFR4
Aircraft B738/M-SDE2E3FGHIRWXY/LB1

Departure

Time 2026-05-06 18:08
Airport San Diego International Airport (KSAN)

Arrival

Time 2026-05-06 19:13
Airport San Francisco International Airport (KSFO)
Time Latitude Longitude Altitude Speed Heading
2026-05-06 17:44 32.73299 -117.19894 22 ft 0 kts 95°
2026-05-06 17:56 32.73300 -117.19906 22 ft 4 kts 95°
2026-05-06 17:56 32.73301 -117.19938 23 ft 4 kts 90°
2026-05-06 17:57 32.73300 -117.19969 23 ft 4 kts 73°
2026-05-06 17:57 32.73289 -117.19991 24 ft 3 kts 10°
2026-05-06 17:57 32.73285 -117.19992 23 ft 1 kts
2026-05-06 18:01 32.73289 -117.19992 22 ft 1 kts
2026-05-06 18:01 32.73309 -117.19990 22 ft 4 kts
2026-05-06 18:01 32.73349 -117.19983 23 ft 7 kts 14°
2026-05-06 18:01 32.73407 -117.19967 22 ft 10 kts 11°
2026-05-06 18:02 32.73477 -117.19937 22 ft 11 kts 50°
2026-05-06 18:02 32.73465 -117.19843 23 ft 13 kts 107°
2026-05-06 18:02 32.73437 -117.19731 22 ft 15 kts 107°
2026-05-06 18:02 32.73405 -117.19604 22 ft 17 kts 104°
2026-05-06 18:03 32.73373 -117.19460 24 ft 19 kts 105°
2026-05-06 18:03 32.73336 -117.19303 21 ft 20 kts 105°
2026-05-06 18:03 32.73297 -117.19142 22 ft 20 kts 106°
2026-05-06 18:03 32.73260 -117.18988 22 ft 19 kts 106°
2026-05-06 18:04 32.73222 -117.18837 22 ft 19 kts 106°
2026-05-06 18:04 32.73187 -117.18692 20 ft 18 kts 106°
2026-05-06 18:04 32.73152 -117.18553 20 ft 17 kts 106°
2026-05-06 18:04 32.73120 -117.18417 20 ft 17 kts 106°
2026-05-06 18:05 32.73088 -117.18286 19 ft 16 kts 106°
2026-05-06 18:05 32.73058 -117.18161 18 ft 16 kts 106°
2026-05-06 18:05 32.73029 -117.18042 18 ft 15 kts 106°
2026-05-06 18:05 32.73000 -117.17926 21 ft 14 kts 106°
2026-05-06 18:06 32.72973 -117.17816 19 ft 14 kts 107°
2026-05-06 18:06 32.72949 -117.17710 19 ft 13 kts 89°
2026-05-06 18:06 32.72979 -117.17610 19 ft 13 kts 62°
2026-05-06 18:06 32.73026 -117.17601 19 ft 6 kts 293°
2026-05-06 18:07 32.73040 -117.17665 19 ft 18 kts 286°
2026-05-06 18:07 32.73148 -117.18114 19 ft 95 kts 286°
2026-05-06 18:07 32.73301 -117.18745 13 ft 140 kts 287°
2026-05-06 18:07 32.73622 -117.19999 336 ft 172 kts 287°
2026-05-06 18:08 32.73971 -117.21445 1046 ft 188 kts 287°
2026-05-06 18:08 32.74610 -117.22773 2001 ft 188 kts 308°
2026-05-06 18:08 32.75449 -117.24048 2616 ft 203 kts 308°
2026-05-06 18:08 32.76345 -117.25444 2965 ft 222 kts 306°
2026-05-06 18:09 32.77216 -117.26975 3449 ft 229 kts 305°
2026-05-06 18:09 32.78118 -117.28588 3942 ft 240 kts 306°
2026-05-06 18:09 32.79091 -117.30313 4351 ft 258 kts 306°
2026-05-06 18:09 32.80094 -117.32079 5048 ft 263 kts 307°
2026-05-06 18:10 32.81198 -117.33843 5764 ft 268 kts 310°
2026-05-06 18:10 32.82358 -117.35620 6473 ft 273 kts 310°
2026-05-06 18:10 32.83533 -117.37414 7164 ft 277 kts 310°
2026-05-06 18:10 32.84706 -117.39214 7886 ft 280 kts 310°
2026-05-06 18:11 32.85903 -117.41060 8598 ft 283 kts 311°
2026-05-06 18:11 32.87118 -117.42938 9310 ft 287 kts 311°
2026-05-06 18:11 32.88330 -117.44817 10016 ft 291 kts 311°
2026-05-06 18:11 32.89591 -117.46771 10405 ft 306 kts 311°
2026-05-06 18:12 32.90935 -117.48855 10576 ft 328 kts 311°
2026-05-06 18:12 32.92357 -117.51064 10970 ft 339 kts 311°
2026-05-06 18:12 32.93787 -117.53295 11603 ft 343 kts 311°
2026-05-06 18:12 32.95242 -117.55565 12330 ft 344 kts 311°
2026-05-06 18:13 32.96690 -117.57825 13053 ft 347 kts 311°
2026-05-06 18:13 32.98170 -117.60135 13765 ft 350 kts 311°
2026-05-06 18:13 32.99640 -117.62430 14425 ft 353 kts 311°
2026-05-06 18:13 33.01143 -117.64779 15077 ft 357 kts 311°
2026-05-06 18:14 33.02661 -117.67151 15746 ft 360 kts 311°
2026-05-06 18:14 33.04173 -117.69515 16379 ft 364 kts 311°
2026-05-06 18:14 33.05726 -117.71946 17013 ft 369 kts 311°
2026-05-06 18:14 33.07415 -117.74245 17629 ft 369 kts 320°
2026-05-06 18:15 33.09348 -117.76241 18261 ft 371 kts 324°
2026-05-06 18:15 33.11384 -117.78194 18839 ft 374 kts 325°
2026-05-06 18:15 33.13382 -117.80123 19418 ft 376 kts 324°
2026-05-06 18:15 33.15405 -117.82132 20001 ft 379 kts 324°
2026-05-06 18:16 33.17434 -117.84187 20575 ft 382 kts 324°
2026-05-06 18:16 33.19436 -117.86234 21125 ft 385 kts 323°
2026-05-06 18:16 33.21426 -117.88445 21624 ft 390 kts 320°
2026-05-06 18:16 33.23351 -117.90726 22140 ft 394 kts 320°
2026-05-06 18:17 33.25303 -117.93091 22685 ft 397 kts 319°
2026-05-06 18:17 33.27234 -117.95441 23205 ft 399 kts 320°
2026-05-06 18:17 33.29200 -117.97823 23708 ft 402 kts 320°
2026-05-06 18:17 33.31156 -118.00184 24130 ft 405 kts 320°
2026-05-06 18:18 33.33158 -118.02591 24552 ft 407 kts 320°
2026-05-06 18:18 33.35156 -118.04988 24970 ft 410 kts 320°
2026-05-06 18:18 33.37171 -118.07402 25363 ft 412 kts 320°
2026-05-06 18:18 33.39212 -118.09848 25739 ft 415 kts 320°
2026-05-06 18:19 33.41243 -118.12281 26099 ft 418 kts 320°
2026-05-06 18:19 33.43317 -118.14768 26503 ft 421 kts 320°
2026-05-06 18:19 33.45383 -118.17246 26892 ft 423 kts 320°
2026-05-06 18:19 33.47482 -118.19766 27269 ft 426 kts 320°
2026-05-06 18:20 33.49567 -118.22272 27628 ft 428 kts 320°
2026-05-06 18:20 33.51676 -118.24809 27979 ft 431 kts 320°
2026-05-06 18:20 33.53808 -118.27375 28327 ft 433 kts 320°
2026-05-06 18:20 33.55924 -118.29923 28658 ft 436 kts 320°
2026-05-06 18:21 33.58077 -118.32518 28943 ft 440 kts 320°
2026-05-06 18:21 33.60248 -118.35137 29259 ft 442 kts 320°
2026-05-06 18:21 33.62404 -118.37739 29587 ft 444 kts 320°
2026-05-06 18:21 33.64601 -118.40394 29910 ft 446 kts 320°
2026-05-06 18:22 33.66775 -118.43023 30200 ft 449 kts 320°
2026-05-06 18:22 33.68974 -118.45683 30448 ft 451 kts 320°
2026-05-06 18:22 33.71189 -118.48365 30709 ft 453 kts 320°
2026-05-06 18:22 33.73424 -118.51075 30984 ft 454 kts 321°
2026-05-06 18:23 33.75644 -118.53768 31323 ft 453 kts 321°
2026-05-06 18:23 33.77817 -118.56409 31715 ft 451 kts 321°
2026-05-06 18:23 33.80035 -118.59105 32066 ft 450 kts 321°
2026-05-06 18:23 33.82254 -118.61801 32127 ft 456 kts 321°
2026-05-06 18:24 33.86651 -118.67148 32113 ft 455 kts 321°
2026-05-06 18:24 33.91070 -118.72542 32134 ft 449 kts 321°
2026-05-06 18:25 33.95458 -118.77898 32142 ft 450 kts 321°
2026-05-06 18:25 33.99848 -118.83264 32141 ft 451 kts 321°
2026-05-06 18:26 34.04249 -118.88653 32132 ft 452 kts 321°
2026-05-06 18:26 34.08599 -118.93995 32150 ft 453 kts 321°
2026-05-06 18:27 34.12996 -118.99397 32137 ft 453 kts 320°
2026-05-06 18:27 34.16901 -119.05420 32151 ft 462 kts 308°
2026-05-06 18:28 34.20195 -119.12115 32137 ft 464 kts 306°
2026-05-06 18:28 34.23492 -119.18807 32149 ft 463 kts 307°
2026-05-06 18:29 34.26862 -119.25437 32122 ft 462 kts 307°
2026-05-06 18:29 34.30245 -119.32030 32142 ft 462 kts 307°
2026-05-06 18:30 34.33662 -119.38584 32144 ft 460 kts 308°
2026-05-06 18:30 34.37012 -119.45247 32132 ft 461 kts 307°
2026-05-06 18:31 34.40357 -119.51833 32133 ft 459 kts 308°
2026-05-06 18:31 34.44424 -119.57583 32142 ft 450 kts 320°
2026-05-06 18:32 34.48881 -119.62919 32134 ft 447 kts 320°
2026-05-06 18:32 34.51037 -119.65529 32111 ft 434 kts 320°
2026-05-06 18:32 34.53198 -119.68129 32130 ft 434 kts 321°
2026-05-06 18:33 34.57476 -119.73458 32135 ft 448 kts 320°
2026-05-06 18:33 34.61902 -119.78858 32142 ft 457 kts 320°
2026-05-06 18:34 34.66372 -119.84382 32126 ft 457 kts 319°
2026-05-06 18:34 34.70812 -119.89892 32121 ft 457 kts 319°
2026-05-06 18:35 34.75243 -119.95427 32125 ft 456 kts 319°
2026-05-06 18:35 34.79669 -120.00901 32145 ft 455 kts 319°
2026-05-06 18:36 34.84099 -120.06400 32143 ft 454 kts 319°
2026-05-06 18:36 34.88505 -120.11882 32127 ft 453 kts 319°
2026-05-06 18:37 34.92153 -120.16444 32144 ft 452 kts 319°
2026-05-06 18:37 34.97267 -120.22839 32143 ft 451 kts 319°
2026-05-06 18:38 35.01665 -120.28345 32154 ft 451 kts 319°
2026-05-06 18:38 35.06027 -120.33813 32156 ft 451 kts 319°
2026-05-06 18:39 35.10424 -120.39233 32156 ft 450 kts 321°
2026-05-06 18:40 35.17343 -120.46936 32154 ft 449 kts 322°
2026-05-06 18:40 35.21992 -120.52093 32148 ft 451 kts 322°
2026-05-06 18:41 35.26624 -120.57292 32150 ft 452 kts 322°
2026-05-06 18:41 35.31227 -120.62482 32150 ft 452 kts 321°
2026-05-06 18:42 35.35842 -120.67699 32149 ft 451 kts 322°
2026-05-06 18:42 35.40464 -120.72914 32159 ft 452 kts 321°
2026-05-06 18:43 35.45063 -120.78129 32166 ft 452 kts 321°
2026-05-06 18:43 35.49744 -120.83283 32187 ft 449 kts 326°
2026-05-06 18:44 35.54696 -120.87893 32194 ft 447 kts 328°
2026-05-06 18:44 35.59712 -120.92438 32192 ft 446 kts 327°
2026-05-06 18:45 35.64668 -120.96997 32172 ft 446 kts 327°
2026-05-06 18:45 35.69589 -121.01574 32188 ft 446 kts 327°
2026-05-06 18:46 35.74432 -121.06108 32173 ft 422 kts 327°
2026-05-06 18:46 35.76744 -121.08276 32171 ft 408 kts 327°
2026-05-06 18:46 35.78971 -121.10361 32178 ft 395 kts 327°
2026-05-06 18:46 35.81101 -121.12356 32165 ft 382 kts 327°
2026-05-06 18:47 35.83201 -121.14323 32176 ft 372 kts 327°
2026-05-06 18:47 35.85255 -121.16244 31641 ft 375 kts 327°
2026-05-06 18:47 35.87318 -121.18171 31284 ft 374 kts 327°
2026-05-06 18:47 35.89412 -121.20131 30840 ft 375 kts 327°
2026-05-06 18:48 35.91458 -121.22051 30510 ft 373 kts 327°
2026-05-06 18:48 35.93517 -121.23985 30153 ft 371 kts 327°
2026-05-06 18:48 35.95577 -121.25923 29748 ft 368 kts 326°
2026-05-06 18:48 35.97601 -121.27828 29377 ft 365 kts 326°
2026-05-06 18:49 35.99594 -121.29705 29034 ft 362 kts 326°
2026-05-06 18:49 36.01597 -121.31592 28665 ft 359 kts 326°
2026-05-06 18:49 36.03576 -121.33457 28321 ft 357 kts 326°
2026-05-06 18:49 36.05520 -121.35290 27990 ft 354 kts 326°
2026-05-06 18:50 36.07489 -121.37108 27636 ft 351 kts 329°
2026-05-06 18:50 36.09518 -121.38759 27287 ft 347 kts 331°
2026-05-06 18:50 36.11548 -121.40317 26967 ft 345 kts 332°
2026-05-06 18:50 36.13590 -121.41866 26620 ft 342 kts 332°
2026-05-06 18:51 36.15613 -121.43409 26296 ft 339 kts 332°
2026-05-06 18:51 36.17598 -121.44932 25976 ft 338 kts 331°
2026-05-06 18:51 36.19589 -121.46469 25645 ft 337 kts 331°
2026-05-06 18:51 36.21574 -121.48009 25313 ft 335 kts 331°
2026-05-06 18:52 36.23548 -121.49546 24991 ft 334 kts 331°
2026-05-06 18:52 36.25508 -121.51075 24666 ft 333 kts 331°
2026-05-06 18:52 36.27466 -121.52604 24323 ft 332 kts 331°
2026-05-06 18:52 36.29423 -121.54134 24010 ft 331 kts 331°
2026-05-06 18:53 36.31378 -121.55664 23646 ft 331 kts 330°
2026-05-06 18:53 36.33325 -121.57188 23287 ft 330 kts 330°
2026-05-06 18:53 36.35264 -121.58708 22937 ft 329 kts 330°
2026-05-06 18:53 36.37197 -121.60225 22591 ft 328 kts 330°
2026-05-06 18:54 36.39117 -121.61732 22273 ft 326 kts 331°
2026-05-06 18:54 36.41005 -121.63213 21954 ft 324 kts 331°
2026-05-06 18:54 36.42913 -121.64711 21630 ft 322 kts 331°
2026-05-06 18:54 36.44809 -121.66201 21315 ft 321 kts 331°
2026-05-06 18:55 36.46688 -121.67678 20999 ft 320 kts 331°
2026-05-06 18:55 36.48565 -121.69155 20686 ft 318 kts 331°
2026-05-06 18:55 36.50433 -121.70626 20324 ft 319 kts 331°
2026-05-06 18:55 36.52307 -121.72104 19987 ft 319 kts 331°
2026-05-06 18:56 36.54174 -121.73580 19666 ft 318 kts 331°
2026-05-06 18:56 36.56041 -121.75056 19350 ft 318 kts 331°
2026-05-06 18:56 36.57887 -121.76517 19028 ft 317 kts 331°
2026-05-06 18:56 36.59751 -121.77992 18715 ft 316 kts 331°
2026-05-06 18:57 36.61594 -121.79452 18377 ft 316 kts 331°
2026-05-06 18:57 36.63446 -121.80919 18027 ft 315 kts 331°
2026-05-06 18:57 36.65291 -121.82382 17685 ft 314 kts 330°
2026-05-06 18:57 36.67130 -121.83842 17371 ft 312 kts 330°
2026-05-06 18:58 36.68957 -121.85293 17061 ft 310 kts 330°
2026-05-06 18:58 36.70778 -121.86738 16754 ft 308 kts 330°
2026-05-06 18:58 36.72567 -121.88160 16480 ft 307 kts 330°
2026-05-06 18:58 36.74414 -121.89504 16025 ft 307 kts 342°
2026-05-06 18:59 36.76465 -121.90161 15671 ft 304 kts 351°
2026-05-06 18:59 36.77844 -121.90522 15422 ft 305 kts 351°
2026-05-06 18:59 36.80600 -121.91252 14845 ft 310 kts 350°
2026-05-06 18:59 36.82746 -121.91832 14438 ft 317 kts 350°
2026-05-06 19:00 36.84183 -121.92225 14166 ft 321 kts 350°
2026-05-06 19:00 36.87142 -121.93044 13631 ft 335 kts 349°
2026-05-06 19:00 36.89433 -121.93683 13213 ft 338 kts 349°
2026-05-06 19:00 36.90948 -121.94107 12943 ft 336 kts 349°
2026-05-06 19:01 36.93225 -121.94745 12546 ft 334 kts 349°
2026-05-06 19:01 36.95486 -121.95392 12151 ft 331 kts 347°
2026-05-06 19:01 36.97710 -121.96186 11777 ft 330 kts 344°
2026-05-06 19:01 36.99895 -121.97051 11392 ft 329 kts 343°
2026-05-06 19:02 37.02039 -121.97916 11020 ft 327 kts 343°
2026-05-06 19:02 37.04205 -121.98784 10676 ft 324 kts 343°
2026-05-06 19:02 37.06332 -121.99631 10548 ft 315 kts 343°
2026-05-06 19:02 37.08391 -122.00445 10413 ft 307 kts 343°
2026-05-06 19:03 37.10386 -122.01226 10266 ft 299 kts 343°
2026-05-06 19:03 37.12345 -122.01996 10143 ft 291 kts 343°
2026-05-06 19:03 37.14253 -122.02745 10022 ft 284 kts 343°
2026-05-06 19:03 37.16132 -122.03480 9739 ft 282 kts 344°
2026-05-06 19:04 37.18000 -122.04212 9455 ft 280 kts 344°
2026-05-06 19:04 37.19859 -122.04940 9160 ft 278 kts 343°
2026-05-06 19:04 37.21705 -122.05664 8891 ft 277 kts 343°
2026-05-06 19:04 37.23533 -122.06380 8608 ft 276 kts 343°
2026-05-06 19:05 37.25343 -122.07088 8320 ft 275 kts 343°
2026-05-06 19:05 37.27170 -122.07806 8037 ft 274 kts 343°
2026-05-06 19:05 37.29003 -122.08527 7690 ft 277 kts 343°
2026-05-06 19:05 37.30850 -122.09255 7343 ft 279 kts 343°
2026-05-06 19:06 37.32712 -122.09988 6968 ft 282 kts 343°
2026-05-06 19:06 37.34589 -122.10729 6607 ft 283 kts 343°
2026-05-06 19:06 37.36458 -122.11466 6210 ft 285 kts 343°
2026-05-06 19:06 37.38364 -122.12202 5840 ft 285 kts 345°
2026-05-06 19:07 37.40275 -122.12859 5506 ft 285 kts 346°
2026-05-06 19:07 37.42156 -122.13491 5154 ft 279 kts 346°
2026-05-06 19:07 37.43999 -122.14115 4821 ft 271 kts 346°
2026-05-06 19:07 37.45797 -122.14722 4476 ft 263 kts 346°
2026-05-06 19:08 37.47516 -122.15288 4403 ft 245 kts 346°
2026-05-06 19:08 37.49107 -122.15810 4263 ft 228 kts 346°
2026-05-06 19:08 37.50589 -122.16299 4123 ft 211 kts 346°
2026-05-06 19:08 37.51962 -122.16752 3916 ft 201 kts 347°
2026-05-06 19:09 37.53278 -122.17334 3613 ft 202 kts 327°
2026-05-06 19:09 37.54134 -122.18713 3285 ft 206 kts 297°
2026-05-06 19:09 37.54849 -122.20257 3060 ft 203 kts 306°
2026-05-06 19:09 37.55589 -122.21795 3053 ft 206 kts 298°
2026-05-06 19:10 37.56220 -122.23365 2971 ft 197 kts 297°
2026-05-06 19:10 37.56845 -122.24890 2724 ft 195 kts 298°
2026-05-06 19:10 37.57472 -122.26397 2459 ft 193 kts 298°
2026-05-06 19:10 37.58090 -122.27877 2258 ft 184 kts 297°
2026-05-06 19:11 37.58659 -122.29267 1900 ft 179 kts 296°
2026-05-06 19:11 37.59202 -122.30620 1658 ft 162 kts 296°
2026-05-06 19:11 37.59711 -122.31850 1204 ft 155 kts 296°
2026-05-06 19:11 37.60183 -122.32999 896 ft 140 kts 298°
2026-05-06 19:12 37.60634 -122.34049 562 ft 131 kts 299°
2026-05-06 19:12 37.61065 -122.35036 246 ft 125 kts 299°
2026-05-06 19:12 37.61461 -122.35973 35 ft 115 kts 297°
2026-05-06 19:12 37.61790 -122.36764 22 ft 83 kts 298°
2026-05-06 19:13 37.61990 -122.37241 22 ft 41 kts 298°
2026-05-06 19:13 37.62059 -122.37402 23 ft 7 kts 298°
2026-05-06 19:13 37.62098 -122.37493 21 ft 16 kts 298°
2026-05-06 19:13 37.62145 -122.37624 21 ft 16 kts 278°
2026-05-06 19:14 37.62101 -122.37743 21 ft 15 kts 227°
2026-05-06 19:14 37.62086 -122.37763 22 ft 0 kts 227°
2026-05-06 19:15 37.62074 -122.37780 22 ft 8 kts 227°
2026-05-06 19:16 37.62026 -122.37848 21 ft 12 kts 228°
2026-05-06 19:16 37.61973 -122.37923 21 ft 11 kts 229°
2026-05-06 19:16 37.61914 -122.37988 22 ft 11 kts 206°
2026-05-06 19:16 37.61841 -122.37982 21 ft 11 kts 152°
2026-05-06 19:17 37.61771 -122.37949 21 ft 11 kts 168°
2026-05-06 19:17 37.61698 -122.37951 22 ft 10 kts 192°
2026-05-06 19:17 37.61635 -122.37983 21 ft 10 kts 208°
2026-05-06 19:17 37.61623 -122.37991 21 ft 0 kts 208°
2026-05-06 19:18 37.61616 -122.37996 23 ft 3 kts 208°
2026-05-06 19:18 37.61576 -122.38025 21 ft 9 kts 218°
2026-05-06 19:18 37.61598 -122.38067 21 ft 7 kts 348°
2026-05-06 19:19 37.61635 -122.38079 21 ft 4 kts 345°
2026-05-06 19:19 37.61643 -122.38082 21 ft 0 kts 345°